Rbgn^[z[y[W
メイン
   新天体発見情報
     Comet C/2019 Q1 (Lemmon)
投稿するにはまず登録を

スレッド表示 | 新しいものから 前のトピック | 次のトピック | 下へ
投稿者 スレッド
佐藤裕久
投稿日時: 2020-9-23 1:07
モデレータ
登録日: 2005-6-12
居住地: 日本
投稿: 2129
オンライン
Comet C/2019 Q1 (Lemmon)

2019年8月28日、D. RankinがMt Lemmonサーベイの1.5-m 反射望遠鏡で得たCCD画像から小惑星状
天体が発見され、他のCCD位置観測者によって彗星状の外観を示すことが見出されていた。
小惑星センターはMPEC 2019-R92でA/2019 Q1と発表していた。
E. J. Christensenは後に、2019年11月5.1日UT、Mt Lemmonの1.5-m 反射望遠鏡で得た30秒の4枚
スタックで、p.a.70°に12"の尾が見え、ことによると光度は19.4等と同じくらい明るいと報告
した。

彗星機能の報告は次の通り:

OC   Date        Reporter           Coma    Tail    PA          Exposures
F52  2019-09-29  R. Weryk            0".8     4"    90            4x45s
F52  2019-10-23  R. Weryk            0".9     6"    90            4x45s
G96  2019-11-05  E. J. Christensen           12"    70            4x30s
461  2019-11-24  K. Sarneczky        3"       8"    80-120        15x120s
F52  2019-11-26  R. Weryk            0".5     4"    90            4x45s
658  2020-07-26  D. D. Balam                 10"    92
F52  2020-08-16  R. Weryk            0".9     8"    95            4x45s
I41  2002-08-20  M. S. P. Kelley     2"      10"    80-110

発見位置は次のとおり、

     2019 UT             R.A. (2000) Decl.       Mag.   Observer
     Aug. 28.40118    1 58 26.28   +20 49 45.2   20.6   Rankin
          28.40639    1 58 25.99   +20 49 45.1   20.4     "
          28.41159    1 58 25.74   +20 49 45.4   20.5     "
          28.41678    1 58 25.43   +20 49 44.6            "
          28.45258    1 58 23.55   +20 49 45.0   20.4     "
          28.45866    1 58 23.23   +20 49 44.8   20.4     "
          28.46648    1 58 22.82   +20 49 44.4   20.1     "
          28.47298    1 58 22.46   +20 49 44.9   20.6     "

MPCの双曲線軌道要素と位置推算表は次のとおり、

Orbital elements:
    C/2019 Q1 (Lemmon)                                                          
Epoch 2020 July 10.0 TT = JDT 2459040.5                                         
T 2020 July 19.71827 TT                                 Rudenko                 
q   4.9970645            (2000.0)            P               Q                  
z  -0.0001665      Peri.   55.92558     +0.92267234     -0.26830752             
 +/-0.0000019      Node    42.33780     -0.30133989     -0.94983215             
e   1.0008318      Incl.  155.72158     +0.24056189     -0.16071702             
From 164 observations 2019 Aug. 28-2020 Aug. 27, mean residual 0".5.            
                                                                                
    C/2019 Q1 (Lemmon)                                                          
Epoch 2020 May 31.0 TT = JDT 2459000.5                                          
T 2020 July 19.68207 TT                                 Rudenko                 
q   4.9970765            (2000.0)            P               Q                  
z  -0.0001740      Peri.   55.92149     +0.92269340     -0.26823424             
 +/-0.0000019      Node    42.33824     -0.30126556     -0.94985539             
e   1.0008696      Incl.  155.72172     +0.24057421     -0.16070199             
From 164 observations 2019 Aug. 28-2020 Aug. 27, mean residual 0".5.            
                                                                                
Ephemeris:
Date    TT    R. A. (2000) Decl.     Delta      r    Elong.  Phase   m1
2020 08 07    22 59 50.9 +20 06 23   4.2369  4.9990   134.4     8.3  18.6
...
2020 08 22    22 37 27.0 +19 07 47   4.1166  5.0036   148.1     6.1  18.6
...
2020 08 30    22 24 56.9 +18 19 29   4.0893  5.0071   152.6     5.3  18.6
...
2020 09 05    22 15 36.8 +17 36 20   4.0869  5.0103   153.6     5.1  18.6
2020 09 06    22 14 04.4 +17 28 37   4.0881  5.0108   153.6     5.1  18.6
2020 09 07    22 12 32.4 +17 20 46   4.0896  5.0114   153.5     5.2  18.6
...
2020 09 13    22 03 30.8 +16 31 07   4.1082  5.0151   151.4     5.5  18.6
...
2020 09 21    21 52 07.2 +15 19 27   4.1567  5.0207   146.0     6.4  18.6
...
2020 10 06    21 33 34.1 +12 57 56   4.3142  5.0332   131.5     8.5  18.7

(MPEC 2020-R14、CBET 4843)

スレッド表示 | 新しいものから 前のトピック | 次のトピック | トップ

投稿するにはまず登録を
 
© 1999 Tsutomu Seki.